Time,TemperatureF,DewpointF,PressureIn,WindDirection,WindDirectionDegrees,WindSpeedMPH,WindSpeedGustMPH,Humidity,HourlyPrecipIn,Conditions,Clouds,dailyrainin,SoftwareType,DateUTC
2013-10-23 00:02:00,52.2,41.6,29.97,SW,225,0.0,-999.0,67,-99.99,,,0.00,Acu-Link.com,2013-10-23 05:02:00,
2013-10-23 00:19:00,52.0,42.1,29.96,SW,225,0.0,-999.0,69,-99.99,,,0.00,Acu-Link.com,2013-10-23 05:19:00,
2013-10-23 00:34:00,51.3,42.2,29.97,SW,225,0.0,-999.0,71,-99.99,,,0.00,Acu-Link.com,2013-10-23 05:34:00,
2013-10-23 00:50:00,50.7,42.0,29.96,SW,225,0.0,-999.0,72,-99.99,,,0.00,Acu-Link.com,2013-10-23 05:50:00,
2013-10-23 01:05:00,50.4,41.7,29.96,SW,225,0.0,-999.0,72,-99.99,,,0.00,Acu-Link.com,2013-10-23 06:05:00,
2013-10-23 01:21:00,49.3,41.7,29.97,SW,225,0.0,-999.0,75,-99.99,,,0.00,Acu-Link.com,2013-10-23 06:21:00,
2013-10-23 01:36:00,49.1,42.5,29.96,SW,225,0.0,-999.0,78,-99.99,,,0.00,Acu-Link.com,2013-10-23 06:36:00,
2013-10-23 01:51:00,48.6,42.4,29.96,SW,225,0.0,-999.0,79,-99.99,,,0.00,Acu-Link.com,2013-10-23 06:51:00,
2013-10-23 02:08:00,48.2,42.6,29.98,SW,225,0.0,-999.0,81,-99.99,,,0.00,Acu-Link.com,2013-10-23 07:08:00,
2013-10-23 02:23:00,47.8,42.3,29.97,SW,225,0.0,-999.0,81,-99.99,,,0.00,Acu-Link.com,2013-10-23 07:23:00,
2013-10-23 02:39:00,47.8,42.3,29.97,SW,225,0.0,-999.0,81,-99.99,,,0.00,Acu-Link.com,2013-10-23 07:39:00,
2013-10-23 02:54:00,47.8,41.9,29.96,SW,225,0.0,-999.0,80,-99.99,,,0.00,Acu-Link.com,2013-10-23 07:54:00,
2013-10-23 03:09:00,47.5,42.6,29.97,SW,225,0.0,-999.0,83,-99.99,,,0.00,Acu-Link.com,2013-10-23 08:09:00,
2013-10-23 03:25:00,47.3,42.4,29.97,SW,225,0.0,-999.0,83,-99.99,,,0.00,Acu-Link.com,2013-10-23 08:25:00,
2013-10-23 03:40:00,47.5,42.3,29.96,SW,225,0.0,-999.0,82,-99.99,,,0.00,Acu-Link.com,2013-10-23 08:40:00,
2013-10-23 03:55:00,47.1,41.9,29.96,SW,225,0.0,-999.0,82,-99.99,,,0.00,Acu-Link.com,2013-10-23 08:55:00,
2013-10-23 04:11:00,47.1,42.2,29.96,SW,225,0.0,-999.0,83,-99.99,,,0.00,Acu-Link.com,2013-10-23 09:11:00,
2013-10-23 04:26:00,46.6,42.0,29.96,SW,225,0.0,-999.0,84,-99.99,,,0.00,Acu-Link.com,2013-10-23 09:26:00,
2013-10-23 04:42:00,46.2,41.6,29.95,SW,225,0.0,-999.0,84,-99.99,,,0.00,Acu-Link.com,2013-10-23 09:42:00,
2013-10-23 04:57:00,46.2,41.0,29.96,SW,225,0.0,-999.0,82,-99.99,,,0.00,Acu-Link.com,2013-10-23 09:57:00,
2013-10-23 05:12:00,45.7,41.5,29.95,SW,225,0.0,-999.0,85,-99.99,,,0.00,Acu-Link.com,2013-10-23 10:12:00,
2013-10-23 05:27:00,45.3,41.4,29.96,SW,225,0.0,-999.0,86,-99.99,,,0.00,Acu-Link.com,2013-10-23 10:27:00,
2013-10-23 05:43:00,45.0,41.4,29.96,SW,225,0.0,-999.0,87,-99.99,,,0.00,Acu-Link.com,2013-10-23 10:43:00,
2013-10-23 05:58:00,44.6,41.3,29.96,SW,225,0.0,-999.0,88,-99.99,,,0.00,Acu-Link.com,2013-10-23 10:58:00,
2013-10-23 06:13:00,44.4,40.8,29.97,SW,225,0.0,-999.0,87,-99.99,,,0.00,Acu-Link.com,2013-10-23 11:13:00,
2013-10-23 06:28:00,44.2,40.6,29.96,SW,225,0.0,-999.0,87,-99.99,,,0.00,Acu-Link.com,2013-10-23 11:28:00,
2013-10-23 06:44:00,43.7,40.4,29.96,SW,225,0.0,-999.0,88,-99.99,,,0.00,Acu-Link.com,2013-10-23 11:44:00,
2013-10-23 06:59:00,43.7,41.0,29.96,SW,225,0.0,-999.0,90,-99.99,,,0.00,Acu-Link.com,2013-10-23 11:59:00,
2013-10-23 07:14:00,43.2,40.5,29.97,SW,225,0.0,-999.0,90,-99.99,,,0.00,Acu-Link.com,2013-10-23 12:14:00,
2013-10-23 07:30:00,42.8,39.8,29.98,SW,225,0.0,-999.0,89,-99.99,,,0.00,Acu-Link.com,2013-10-23 12:30:00,
2013-10-23 07:45:00,42.8,40.4,29.98,SW,225,0.0,-999.0,91,-99.99,,,0.00,Acu-Link.com,2013-10-23 12:45:00,
2013-10-23 08:00:00,43.3,40.9,29.99,SW,225,0.0,-999.0,91,-99.99,,,0.00,Acu-Link.com,2013-10-23 13:00:00,
2013-10-23 08:15:00,46.4,44.5,29.99,SW,225,0.0,-999.0,93,-99.99,,,0.00,Acu-Link.com,2013-10-23 13:15:00,
2013-10-23 08:31:00,50.0,46.0,29.99,SW,225,0.0,-999.0,86,-99.99,,,0.00,Acu-Link.com,2013-10-23 13:31:00,
2013-10-23 08:46:00,53.1,47.4,29.99,SSW,202,0.0,-999.0,81,-99.99,,,0.00,Acu-Link.com,2013-10-23 13:46:00,
2013-10-23 09:01:00,55.6,46.7,30.00,SSW,202,0.0,-999.0,72,-99.99,,,0.00,Acu-Link.com,2013-10-23 14:01:00,
2013-10-23 09:17:00,57.0,46.5,30.00,SSW,202,0.0,-999.0,68,-99.99,,,0.00,Acu-Link.com,2013-10-23 14:17:00,
2013-10-23 09:32:00,57.0,47.7,30.00,SSW,202,0.0,-999.0,71,-99.99,,,0.00,Acu-Link.com,2013-10-23 14:32:00,
2013-10-23 09:49:00,58.1,48.7,30.00,SE,135,1.7,-999.0,71,-99.99,,,0.00,Acu-Link.com,2013-10-23 14:49:00,
2013-10-23 10:04:00,61.2,48.1,30.00,SE,135,2.7,-999.0,62,-99.99,,,0.00,Acu-Link.com,2013-10-23 15:04:00,
2013-10-23 10:19:00,63.0,48.0,30.01,SE,135,1.7,-999.0,58,-99.99,,,0.00,Acu-Link.com,2013-10-23 15:19:00,
2013-10-23 10:34:00,65.3,48.2,30.00,SE,135,3.7,-999.0,54,-99.99,,,0.00,Acu-Link.com,2013-10-23 15:34:00,
2013-10-23 10:50:00,66.6,49.4,30.00,SSE,157,1.1,-999.0,54,-99.99,,,0.00,Acu-Link.com,2013-10-23 15:50:00,
2013-10-23 11:05:00,68.9,50.0,30.00,SSW,202,0.0,-999.0,51,-99.99,,,0.00,Acu-Link.com,2013-10-23 16:05:00,
2013-10-23 11:20:00,68.7,47.6,30.00,SW,225,2.7,-999.0,47,-99.99,,,0.00,Acu-Link.com,2013-10-23 16:20:00,
2013-10-23 11:35:00,69.8,48.7,29.99,WSW,247,4.2,-999.0,47,-99.99,,,0.00,Acu-Link.com,2013-10-23 16:35:00,
2013-10-23 11:51:00,70.7,47.7,29.99,SW,225,0.0,-999.0,44,-99.99,,,0.00,Acu-Link.com,2013-10-23 16:51:00,
2013-10-23 12:06:00,72.3,46.6,29.99,WSW,247,4.2,-999.0,40,-99.99,,,0.00,Acu-Link.com,2013-10-23 17:06:00,
2013-10-23 12:21:00,73.4,46.2,29.98,SW,225,3.2,-999.0,38,-99.99,,,0.00,Acu-Link.com,2013-10-23 17:21:00,
2013-10-23 12:37:00,73.9,46.7,29.97,SW,225,1.1,-999.0,38,-99.99,,,0.00,Acu-Link.com,2013-10-23 17:37:00,
2013-10-23 12:52:00,76.6,46.9,29.97,West,270,2.7,-999.0,35,-99.99,,,0.00,Acu-Link.com,2013-10-23 17:52:00,
2013-10-23 13:08:00,76.6,46.1,29.97,WSW,247,3.7,-999.0,34,-99.99,,,0.00,Acu-Link.com,2013-10-23 18:08:00,
2013-10-23 13:23:00,77.2,46.6,29.96,SW,225,5.3,-999.0,34,-99.99,,,0.00,Acu-Link.com,2013-10-23 18:23:00,
2013-10-23 13:38:00,78.8,48.0,29.96,SSW,202,2.7,-999.0,34,-99.99,,,0.00,Acu-Link.com,2013-10-23 18:38:00,
2013-10-23 13:53:00,79.0,44.9,29.94,WSW,247,4.7,-999.0,30,-99.99,,,0.00,Acu-Link.com,2013-10-23 18:53:00,
2013-10-23 14:09:00,79.3,42.4,29.94,East,90,0.0,-999.0,27,-99.99,,,0.00,Acu-Link.com,2013-10-23 19:09:00,
2013-10-23 14:24:00,79.5,42.6,29.93,SSW,202,6.8,-999.0,27,-99.99,,,0.00,Acu-Link.com,2013-10-23 19:24:00,
2013-10-23 14:39:00,79.5,41.6,29.93,SW,225,5.8,-999.0,26,-99.99,,,0.00,Acu-Link.com,2013-10-23 19:39:00,
2013-10-23 14:54:00,79.5,41.6,29.92,SSW,202,4.7,-999.0,26,-99.99,,,0.00,Acu-Link.com,2013-10-23 19:54:00,
2013-10-23 15:10:00,80.6,42.5,29.92,SW,225,3.2,-999.0,26,-99.99,,,0.00,Acu-Link.com,2013-10-23 20:10:00,
2013-10-23 15:25:00,81.0,43.8,29.92,SW,225,0.0,-999.0,27,-99.99,,,0.00,Acu-Link.com,2013-10-23 20:25:00,
2013-10-23 15:40:00,81.9,45.6,29.91,South,180,3.2,-999.0,28,-99.99,,,0.00,Acu-Link.com,2013-10-23 20:40:00,
2013-10-23 15:55:00,81.9,45.6,29.91,ESE,112,0.0,-999.0,28,-99.99,,,0.00,Acu-Link.com,2013-10-23 20:55:00,
2013-10-23 16:10:00,82.0,46.6,29.90,SSE,157,3.2,-999.0,29,-99.99,,,0.00,Acu-Link.com,2013-10-23 21:10:00,
2013-10-23 16:25:00,81.7,44.4,29.91,South,180,7.3,-999.0,27,-99.99,,,0.00,Acu-Link.com,2013-10-23 21:25:00,
2013-10-23 16:41:00,81.7,43.5,29.90,SSW,202,2.2,-999.0,26,-99.99,,,0.00,Acu-Link.com,2013-10-23 21:41:00,
2013-10-23 16:56:00,81.5,42.3,29.90,SW,225,2.2,-999.0,25,-99.99,,,0.00,Acu-Link.com,2013-10-23 21:56:00,
2013-10-23 17:11:00,81.3,43.1,29.89,SW,225,2.2,-999.0,26,-99.99,,,0.00,Acu-Link.com,2013-10-23 22:11:00,
2013-10-23 17:27:00,81.5,44.3,29.89,SE,135,1.7,-999.0,27,-99.99,,,0.00,Acu-Link.com,2013-10-23 22:27:00,
2013-10-23 17:42:00,80.4,44.3,29.88,WSW,247,1.1,-999.0,28,-99.99,,,0.00,Acu-Link.com,2013-10-23 22:42:00,
2013-10-23 17:57:00,79.5,45.3,29.89,SSW,202,0.0,-999.0,30,-99.99,,,0.00,Acu-Link.com,2013-10-23 22:57:00,
2013-10-23 18:12:00,80.6,47.1,29.89,SE,135,0.0,-999.0,31,-99.99,,,0.00,Acu-Link.com,2013-10-23 23:12:00,
2013-10-23 18:28:00,79.0,48.2,29.89,South,180,0.0,-999.0,34,-99.99,,,0.00,Acu-Link.com,2013-10-23 23:28:00,
2013-10-23 18:43:00,78.4,46.9,29.89,South,180,0.0,-999.0,33,-99.99,,,0.00,Acu-Link.com,2013-10-23 23:43:00,
2013-10-23 18:58:00,74.8,46.0,29.89,South,180,0.0,-999.0,36,-99.99,,,0.00,Acu-Link.com,2013-10-23 23:58:00,
2013-10-23 19:14:00,71.2,44.3,29.89,South,180,0.0,-999.0,38,-99.99,,,0.00,Acu-Link.com,2013-10-24 00:14:00,
2013-10-23 19:29:00,68.7,42.7,29.89,South,180,0.0,-999.0,39,-99.99,,,0.00,Acu-Link.com,2013-10-24 00:29:00,
2013-10-23 19:45:00,66.2,43.6,29.90,South,180,0.0,-999.0,44,-99.99,,,0.00,Acu-Link.com,2013-10-24 00:45:00,
2013-10-23 20:00:00,64.4,44.3,29.90,South,180,0.0,-999.0,48,-99.99,,,0.00,Acu-Link.com,2013-10-24 01:00:00,
2013-10-23 20:15:00,63.3,43.3,29.90,South,180,0.0,-999.0,48,-99.99,,,0.00,Acu-Link.com,2013-10-24 01:15:00,
2013-10-23 20:30:00,62.4,44.5,29.91,South,180,0.0,-999.0,52,-99.99,,,0.00,Acu-Link.com,2013-10-24 01:30:00,
2013-10-23 20:46:00,61.0,43.7,29.90,South,180,0.0,-999.0,53,-99.99,,,0.00,Acu-Link.com,2013-10-24 01:46:00,
2013-10-23 21:01:00,60.3,44.1,29.91,South,180,0.0,-999.0,55,-99.99,,,0.00,Acu-Link.com,2013-10-24 02:01:00,
2013-10-23 21:16:00,59.5,42.8,29.93,South,180,0.0,-999.0,54,-99.99,,,0.00,Acu-Link.com,2013-10-24 02:16:00,
2013-10-23 21:31:00,58.6,43.9,29.92,South,180,0.0,-999.0,58,-99.99,,,0.00,Acu-Link.com,2013-10-24 02:31:00,
2013-10-23 21:47:00,58.1,43.4,29.91,South,180,0.0,-999.0,58,-99.99,,,0.00,Acu-Link.com,2013-10-24 02:47:00,
2013-10-23 22:02:00,57.0,43.3,29.93,South,180,0.0,-999.0,60,-99.99,,,0.00,Acu-Link.com,2013-10-24 03:02:00,
2013-10-23 22:18:00,56.5,43.2,29.93,South,180,0.0,-999.0,61,-99.99,,,0.00,Acu-Link.com,2013-10-24 03:18:00,
2013-10-23 22:33:00,56.3,43.9,29.94,South,180,0.0,-999.0,63,-99.99,,,0.00,Acu-Link.com,2013-10-24 03:33:00,
2013-10-23 22:48:00,55.9,43.9,29.94,South,180,0.0,-999.0,64,-99.99,,,0.00,Acu-Link.com,2013-10-24 03:48:00,
2013-10-23 23:04:00,56.3,44.7,29.95,South,180,0.0,-999.0,65,-99.99,,,0.00,Acu-Link.com,2013-10-24 04:04:00,
2013-10-23 23:19:00,55.9,44.7,29.95,South,180,0.0,-999.0,66,-99.99,,,0.00,Acu-Link.com,2013-10-24 04:19:00,
2013-10-23 23:34:00,55.2,43.6,29.96,South,180,0.0,-999.0,65,-99.99,,,0.00,Acu-Link.com,2013-10-24 04:34:00,
2013-10-23 23:49:00,54.1,42.6,29.96,South,180,0.0,-999.0,65,-99.99,,,0.00,Acu-Link.com,2013-10-24 04:49:00,